アトラス彗星

427P/ATLAS (2017)

English version
Home page
Updated on October 6, 2021

---------------------------------------------------------------------

・ プロフィール

符号 427P/2017 S5
発見日 2017年9月27日
発見光度 18.2等
発見者 Asteroid Terrestrial-impact Last Alert System (ATLAS) search program

・ 写真集

・ 軌道要素

Epoch 2017 July 26.0 TT = JDT 2457960.5                                         
T 2017 July 28.03075 TT                                 Rudenko                 
q   2.1782331            (2000.0)            P               Q                  
n   0.17457404     Peri.   99.94488     +0.97106733     +0.13683438             
a   3.1706595      Node   252.39324     -0.19695047     +0.92237538             
e   0.3130032      Incl.   11.84908     +0.13505094     +0.36124786             
P   5.65                                                                        
From 438 observations 2017 July 22-2021 June 13, mean residual 0".6.            

・ 光度変化

        m1 = 10.0 + 5 logΔ + 20.0 log r

---------------------------------------------------------------------

軌道要素はM.P.E.C. 2021-P79に掲載されたものです。
光度グラフはComet for Windowsで作成したものです。

---------------------------------------------------------------------

Copyright(C) Seiichi Yoshida (comet@aerith.net). All rights reserved.